• In Hungary
  • List of Countries
  • For 7 days
  • Water Temperature
  • Satellite Maps
  • Weather Map
  • News
  • Weather Widgets
  • user-avatar
    Login

    Hourly Weather Maevka

    Today, 23 October, Tuesday

    Time Temperature Precipitation Wind Pressure Humidity
    00:00 +2°C° 0 mm 3 mps 745 mmHg 80%
    01:00 +2°C° 0 mm 3 mps 744 mmHg 82%
    02:00 +2°C° 0 mm 3 mps 744 mmHg 82%
    03:00 +1°C° 0 mm 3 mps 742 mmHg 82%
    04:00 +1°C° 0 mm 3 mps 742 mmHg 82%
    05:00 +1°C° 0 mm 3 mps 741 mmHg 83%
    06:00 0°C° 0 mm 4 mps 741 mmHg 83%
    07:00 +1°C° 0 mm 4 mps 740 mmHg 81%
    08:00 +1°C° 0 mm 4 mps 740 mmHg 80%
    09:00 +1°C° 0 mm 5 mps 740 mmHg 79%
    10:00 +3°C° 0 mm 5 mps 739 mmHg 76%
    11:00 +5°C° 0 mm 5 mps 738 mmHg 73%
    12:00 +6°C° 0 mm 5 mps 738 mmHg 71%
    13:00 +6°C° 0 mm 5 mps 737 mmHg 72%
    14:00 +6°C° 0 mm 5 mps 737 mmHg 74%
    15:00 +6°C° 0 mm 5 mps 736 mmHg 75%
    16:00 +6°C° 0.1 mm 4 mps 736 mmHg 78%
    17:00 +5°C° 0.1 mm 4 mps 735 mmHg 80%
    18:00 +5°C° 0.1 mm 4 mps 735 mmHg 83%
    19:00 +5°C° 0.1 mm 4 mps 734 mmHg 84%
    20:00 +5°C° 0.1 mm 4 mps 734 mmHg 85%
    21:00 +5°C° 0.1 mm 4 mps 733 mmHg 86%
    22:00 +5°C° 0 mm 4 mps 732 mmHg 85%
    23:00 +4°C° 0 mm 4 mps 732 mmHg 85%

    Tomorrow, 24 October, Wednesday

    Time Temperature Precipitation Wind Pressure Humidity
    00:00 +4°C° 0 mm 4 mps 731 mmHg 85%
    01:00 +4°C° 0.2 mm 4 mps 730 mmHg 84%
    02:00 +4°C° 0.2 mm 4 mps 730 mmHg 84%
    03:00 +4°C° 0.2 mm 4 mps 729 mmHg 83%
    04:00 +4°C° 0.3 mm 4 mps 728 mmHg 83%
    05:00 +3°C° 0.3 mm 5 mps 727 mmHg 83%
    06:00 +3°C° 0.3 mm 5 mps 726 mmHg 82%
    07:00 +3°C° 0.1 mm 5 mps 726 mmHg 82%
    08:00 +4°C° 0.1 mm 6 mps 725 mmHg 81%
    09:00 +4°C° 0.1 mm 6 mps 724 mmHg 80%
    10:00 +4°C° 0.5 mm 6 mps 724 mmHg 80%
    11:00 +4°C° 0.5 mm 7 mps 723 mmHg 81%
    12:00 +5°C° 0.5 mm 7 mps 723 mmHg 81%
    13:00 +5°C° 0.2 mm 6 mps 722 mmHg 81%
    14:00 +7°C° 0.2 mm 6 mps 722 mmHg 81%
    15:00 +7°C° 0.2 mm 6 mps 721 mmHg 82%
    16:00 +7°C° 0.7 mm 5 mps 721 mmHg 84%
    17:00 +6°C° 0.7 mm 5 mps 721 mmHg 86%
    18:00 +6°C° 0.7 mm 5 mps 721 mmHg 88%
    19:00 +6°C° 0.3 mm 5 mps 721 mmHg 88%
    20:00 +5°C° 0.3 mm 5 mps 721 mmHg 88%
    21:00 +5°C° 0.3 mm 4 mps 722 mmHg 89%
    22:00 +5°C° 0 mm 4 mps 722 mmHg 89%
    23:00 +4°C° 0 mm 4 mps 722 mmHg 90%

    Day after tomorrow, 25 October, Thursday

    Time Temperature Precipitation Wind Pressure Humidity
    00:00 +4°C° 0 mm 4 mps 722 mmHg 90%
    01:00 +4°C° 0 mm 4 mps 722 mmHg 91%
    02:00 +3°C° 0 mm 3 mps 722 mmHg 91%
    03:00 +3°C° 0 mm 3 mps 722 mmHg 92%
    04:00 +3°C° 0 mm 3 mps 722 mmHg 92%
    05:00 +2°C° 0 mm 3 mps 722 mmHg 93%
    06:00 +1°C° 0 mm 3 mps 721 mmHg 93%
    07:00 +1°C° 0 mm 4 mps 722 mmHg 91%
    08:00 +1°C° 0 mm 4 mps 722 mmHg 90%
    09:00 +1°C° 0 mm 5 mps 722 mmHg 88%
    10:00 +2°C° 0.3 mm 5 mps 722 mmHg 86%
    11:00 +2°C° 0.3 mm 5 mps 722 mmHg 84%
    12:00 +3°C° 0.3 mm 6 mps 722 mmHg 82%
    13:00 +3°C° 0.4 mm 6 mps 722 mmHg 83%
    14:00 +3°C° 0.4 mm 6 mps 722 mmHg 83%
    15:00 +3°C° 0.4 mm 6 mps 723 mmHg 83%
    16:00 +3°C° 0.2 mm 6 mps 723 mmHg 83%
    17:00 +3°C° 0.2 mm 5 mps 724 mmHg 83%
    18:00 +2°C° 0.2 mm 5 mps 724 mmHg 82%
    19:00 +2°C° 0.1 mm 5 mps 725 mmHg 82%
    20:00 +2°C° 0.1 mm 5 mps 725 mmHg 82%
    21:00 +1°C° 0.1 mm 4 mps 726 mmHg 82%
    22:00 +1°C° 0 mm 4 mps 727 mmHg 83%
    23:00 +1°C° 0 mm 4 mps 727 mmHg 83%

    26 October, Friday

    Time Temperature Precipitation Wind Pressure Humidity
    00:00 0°C° 0 mm 4 mps 727 mmHg 83%
    01:00 0°C° 0 mm 4 mps 728 mmHg 83%
    02:00 0°C° 0 mm 4 mps 728 mmHg 82%
    03:00 0°C° 0 mm 4 mps 729 mmHg 81%
    04:00 0°C° 0 mm 4 mps 729 mmHg 80%
    05:00 0°C° 0 mm 4 mps 729 mmHg 80%
    06:00 0°C° 0 mm 4 mps 730 mmHg 80%
    07:00 0°C° 0 mm 4 mps 730 mmHg 79%
    08:00 +1°C° 0 mm 5 mps 731 mmHg 79%
    09:00 +1°C° 0 mm 5 mps 731 mmHg 79%
    10:00 +2°C° 0 mm 5 mps 732 mmHg 74%
    11:00 +2°C° 0 mm 5 mps 732 mmHg 70%
    12:00 +3°C° 0 mm 5 mps 732 mmHg 65%
    13:00 +3°C° 0 mm 5 mps 732 mmHg 65%
    14:00 +3°C° 0 mm 5 mps 733 mmHg 64%
    15:00 +3°C° 0 mm 6 mps 733 mmHg 63%
    16:00 +3°C° 0.1 mm 5 mps 733 mmHg 68%
    17:00 +2°C° 0.1 mm 5 mps 733 mmHg 73%
    18:00 +3°C° 0.1 mm 4 mps 734 mmHg 78%
    19:00 +3°C° 0.2 mm 4 mps 734 mmHg 79%
    20:00 +1°C° 0.2 mm 5 mps 735 mmHg 81%
    21:00 +1°C° 0.2 mm 5 mps 735 mmHg 83%
    22:00 +1°C° 0 mm 5 mps 735 mmHg 85%
    23:00 0°C° 0 mm 5 mps 736 mmHg 87%

    27 October, Saturday

    Time Temperature Precipitation Wind Pressure Humidity
    00:00 0°C° 0 mm 4 mps 736 mmHg 89%
    01:00 -1°C° 0 mm 4 mps 737 mmHg 89%
    02:00 -1°C° 0 mm 4 mps 737 mmHg 90%
    03:00 -1°C° 0 mm 4 mps 738 mmHg 90%
    04:00 -1°C° 0 mm 4 mps 738 mmHg 90%
    05:00 -2°C° 0 mm 5 mps 739 mmHg 90%
    06:00 -2°C° 0 mm 5 mps 739 mmHg 91%
    07:00 -1°C° 0 mm 5 mps 739 mmHg 89%
    08:00 -1°C° 0 mm 5 mps 740 mmHg 88%
    09:00 0°C° 0 mm 5 mps 740 mmHg 86%
    10:00 +1°C° 0 mm 5 mps 740 mmHg 81%
    11:00 +2°C° 0 mm 6 mps 740 mmHg 76%
    12:00 +3°C° 0 mm 6 mps 740 mmHg 71%
    13:00 +4°C° 0 mm 7 mps 739 mmHg 71%
    14:00 +4°C° 0 mm 7 mps 739 mmHg 70%
    15:00 +4°C° 0 mm 7 mps 738 mmHg 69%
    16:00 +4°C° 0.2 mm 8 mps 738 mmHg 73%
    17:00 +4°C° 0.2 mm 8 mps 737 mmHg 77%
    18:00 +4°C° 0.2 mm 8 mps 736 mmHg 80%
    19:00 +5°C° 0.4 mm 9 mps 736 mmHg 80%
    20:00 +5°C° 0.4 mm 9 mps 735 mmHg 80%
    21:00 +6°C° 0.4 mm 9 mps 735 mmHg 80%
    22:00 +6°C° 0.4 mm 9 mps 735 mmHg 81%
    23:00 +6°C° 0.4 mm 8 mps 735 mmHg 82%

    28 October, Sunday

    Time Temperature Precipitation Wind Pressure Humidity
    00:00 +6°C° 0.4 mm 8 mps 735 mmHg 83%
    01:00 +6°C° 0.1 mm 7 mps 735 mmHg 84%
    02:00 +5°C° 0.1 mm 6 mps 735 mmHg 85%
    03:00 +4°C° 0.1 mm 6 mps 736 mmHg 86%
    04:00 +4°C° 0 mm 6 mps 736 mmHg 86%
    05:00 +3°C° 0 mm 6 mps 736 mmHg 86%
    06:00 +3°C° 0 mm 6 mps 737 mmHg 85%
    07:00 +3°C° 0 mm 6 mps 738 mmHg 84%
    08:00 +3°C° 0 mm 6 mps 739 mmHg 83%
    09:00 +3°C° 0 mm 6 mps 739 mmHg 82%
    10:00 +3°C° 0 mm 6 mps 740 mmHg 78%
    11:00 +3°C° 0 mm 6 mps 741 mmHg 74%
    12:00 +3°C° 0 mm 5 mps 742 mmHg 70%
    13:00 +3°C° 0 mm 5 mps 742 mmHg 69%
    14:00 +4°C° 0 mm 4 mps 743 mmHg 69%
    15:00 +4°C° 0 mm 3 mps 743 mmHg 68%
    16:00 +4°C° 0 mm 3 mps 744 mmHg 71%
    17:00 +4°C° 0 mm 2 mps 745 mmHg 73%
    18:00 +5°C° 0 mm 1 mps 745 mmHg 76%
    19:00 +5°C° 0 mm 1 mps 746 mmHg 77%
    20:00 +5°C° 0 mm 1 mps 746 mmHg 78%
    21:00 +5°C° 0 mm 1 mps 746 mmHg 78%
    22:00 +4°C° 0 mm 1 mps 747 mmHg 79%
    23:00 +4°C° 0 mm 1 mps 747 mmHg 80%

    29 October, Monday

    Time Temperature Precipitation Wind Pressure Humidity
    00:00 +4°C° 0 mm 1 mps 747 mmHg 81%
    01:00 +3°C° 0 mm 2 mps 748 mmHg 80%
    02:00 +3°C° 0 mm 2 mps 748 mmHg 80%
    03:00 +2°C° 0 mm 3 mps 748 mmHg 80%
    04:00 +2°C° 0.1 mm 3 mps 748 mmHg 80%
    05:00 +1°C° 0.1 mm 4 mps 748 mmHg 80%
    06:00 +1°C° 0.1 mm 4 mps 748 mmHg 80%
    07:00 +1°C° 0.8 mm 4 mps 748 mmHg 82%
    08:00 +1°C° 0.8 mm 5 mps 748 mmHg 83%
    09:00 +1°C° 0.8 mm 5 mps 748 mmHg 85%
    10:00 +1°C° 0.5 mm 5 mps 748 mmHg 86%
    11:00 +1°C° 0.5 mm 5 mps 748 mmHg 87%
    12:00 +1°C° 0.5 mm 5 mps 747 mmHg 88%
    13:00 +1°C° 0.1 mm 5 mps 747 mmHg 88%
    14:00 +2°C° 0.1 mm 5 mps 747 mmHg 88%
    15:00 +2°C° 0.1 mm 5 mps 746 mmHg 88%
    16:00 +2°C° 0 mm 5 mps 746 mmHg 89%
    17:00 +2°C° 0 mm 5 mps 746 mmHg 90%
    18:00 +3°C° 0 mm 5 mps 746 mmHg 91%
    19:00 +3°C° 0 mm 5 mps 746 mmHg 93%
    20:00 +4°C° 0 mm 4 mps 746 mmHg 94%
    21:00 +5°C° 0 mm 4 mps 746 mmHg 95%
    22:00 +5°C° 0 mm 4 mps 746 mmHg 96%
    23:00 +6°C° 0 mm 4 mps 746 mmHg 96%
    Show more